La Grange, GA

6:49 AM EDT on October 21, 2017 (GMT -0400)
Lagrange-Callaway

Weather History for KLGC - June, 2013

Change the Weather History Date:

Tuesday, June 25, 2013

  Actual Average Record
Temperature  
Mean Temperature 77 °F -  
Max Temperature 88 °F 90 °F 100 °F (2016)
Min Temperature 66 °F 65 °F 57 °F (1974)
Cooling Degree Days 12    
Growing Degree Days 27 (Base 50)    
Moisture  
Dew Point 71 °F    
Average Humidity 80    
Maximum Humidity 99    
Minimum Humidity 56    
Precipitation  
Precipitation 0.00 in - - ()
Sea Level Pressure  
Sea Level Pressure 30.13 in    
Wind  
Wind Speed 2 mph (SW)    
Max Wind Speed 8 mph    
Max Gust Speed -    
Visibility 10 miles    
Events Thunderstorm    
Averages and records for this station are not official NWS values.
T = Trace of Precipitation, MM = Missing Value Source: NWS Daily Summary

Daily Weather History Graph

Daily Weather History Graph

Search for Another Location

Airport or City:

Trip Planner

Search our weather history database for the weather conditions in past years. The results will help you decide how hot, cold, wet, or windy it might be!

Date:

Astronomy

Jun. 25, 2013 Rise Set
Actual Time 6:33 AM EDT 8:52 PM EDT
Civil Twilight 6:04 AM EDT 9:21 PM EDT
Nautical Twilight 5:29 AM EDT 9:56 PM EDT
Astronomical Twilight 4:50 AM EDT 10:35 PM EDT
Moon 10:48 PM EDT (6/25) 9:03 AM EDT (6/25)
Length of Visible Light 15h 17m
Length of Day
14h 19m
Waning Gibbous, 93% of the Moon is Illuminated
Jun 25
Waning Gibbous
Jun 30
Last Quarter
Jul 8
New
Jul 15
First Quarter
Jul 22
Full

Hourly Weather History & Observations

Time (EDT) Temp. Heat Index Dew Point Humidity Pressure Visibility Wind Dir Wind Speed Gust Speed Precip Events Conditions
12:15 AM 72.7 °F - 70.7 °F 93% 30.17 in 10.0 mi SSE 5.8 mph - N/A   Clear
12:35 AM 72.5 °F - 70.3 °F 93% 30.17 in 10.0 mi SSE 4.6 mph - N/A   Clear
12:55 AM 71.6 °F - 70.0 °F 95% 30.19 in 10.0 mi SSW 3.5 mph - N/A   Clear
1:15 AM 71.8 °F - 70.0 °F 94% 30.17 in 10.0 mi SSE 4.6 mph - N/A   Clear
1:35 AM 71.1 °F - 69.8 °F 96% 30.17 in 10.0 mi Calm Calm - N/A   Clear
1:55 AM 70.5 °F - 69.8 °F 98% 30.17 in 10.0 mi Calm Calm - N/A   Clear
2:15 AM 70.5 °F - 68.9 °F 95% 30.16 in 10.0 mi Calm Calm - N/A   Clear
2:35 AM 70.7 °F - 68.9 °F 94% 30.15 in 10.0 mi Calm Calm - N/A   Clear
2:55 AM 69.3 °F - 68.5 °F 98% 30.14 in 10.0 mi Calm Calm - N/A   Clear
3:15 AM 68.9 °F - 68.5 °F 99% 30.15 in 7.0 mi Calm Calm - N/A   Scattered Clouds
3:35 AM 68.4 °F - 67.5 °F 97% 30.14 in 10.0 mi Calm Calm - N/A   Scattered Clouds
3:55 AM 68.4 °F - 67.6 °F 98% 30.14 in 10.0 mi Calm Calm - N/A   Clear
4:15 AM 68.2 °F - 67.3 °F 97% 30.14 in 10.0 mi Calm Calm - N/A   Clear
4:35 AM 68.2 °F - 67.5 °F 98% 30.14 in 10.0 mi Calm Calm - N/A   Clear
4:55 AM 68.0 °F - 67.5 °F 98% 30.15 in 10.0 mi Calm Calm - N/A   Clear
5:15 AM 66.7 °F - 66.4 °F 99% 30.15 in 3.0 mi Calm Calm - N/A   Clear
5:35 AM 67.1 °F - 66.9 °F 99% 30.15 in 5.0 mi Calm Calm - N/A   Clear
5:55 AM 66.9 °F - 66.4 °F 98% 30.16 in 10.0 mi Calm Calm - N/A   Mostly Cloudy
6:15 AM 67.1 °F - 66.6 °F 98% 30.16 in 10.0 mi Calm Calm - N/A   Scattered Clouds
6:35 AM 67.1 °F - 66.4 °F 98% 30.16 in 7.0 mi Calm Calm - N/A   Clear
6:55 AM 66.7 °F - 66.4 °F 99% 30.16 in 7.0 mi Calm Calm - N/A   Clear
7:15 AM 67.5 °F - 66.6 °F 97% 30.17 in 10.0 mi Calm Calm - N/A   Clear
7:35 AM 68.9 °F - 67.8 °F 96% 30.17 in 10.0 mi Calm Calm - N/A   Clear
7:55 AM 70.0 °F - 68.4 °F 95% 30.17 in 10.0 mi Calm Calm - N/A   Clear
8:15 AM 71.6 °F - 69.4 °F 93% 30.17 in 10.0 mi Calm Calm - N/A   Clear
8:35 AM 72.5 °F - 70.5 °F 93% 30.17 in 10.0 mi Calm Calm - N/A   Clear
8:55 AM 74.8 °F - 70.2 °F 85% 30.18 in 10.0 mi SW 4.6 mph - N/A   Clear
9:15 AM 76.3 °F - 71.1 °F 84% 30.19 in 10.0 mi SSW 4.6 mph - N/A   Clear
9:35 AM 77.5 °F - 71.4 °F 81% 30.19 in 10.0 mi SSW 4.6 mph - N/A   Clear
9:55 AM 78.6 °F - 71.6 °F 79% 30.19 in 10.0 mi WSW 4.6 mph - N/A   Clear
10:15 AM 79.9 °F - 71.1 °F 74% 30.18 in 10.0 mi SW 5.8 mph - N/A   Clear
10:35 AM 80.4 °F 84.2 °F 71.4 °F 74% 30.19 in 10.0 mi WSW 3.5 mph - N/A   Clear
10:55 AM 81.1 °F 85.2 °F 71.2 °F 72% 30.19 in 10.0 mi Calm Calm - N/A   Clear
11:15 AM 81.3 °F 85.6 °F 71.6 °F 72% 30.19 in 10.0 mi Calm Calm - N/A   Clear
11:35 AM 81.7 °F 86.0 °F 71.6 °F 71% 30.19 in 10.0 mi Calm Calm - N/A   Scattered Clouds
11:55 AM 82.2 °F 87.1 °F 72.0 °F 71% 30.19 in 10.0 mi Calm Calm - N/A   Mostly Cloudy
12:15 PM 83.7 °F 88.6 °F 71.4 °F 66% 30.18 in 10.0 mi Calm Calm - N/A   Mostly Cloudy
12:35 PM 83.1 °F 87.6 °F 70.9 °F 66% 30.17 in 10.0 mi WNW 4.6 mph - N/A   Scattered Clouds
12:55 PM 85.3 °F 90.4 °F 70.9 °F 62% 30.16 in 10.0 mi WNW 4.6 mph - N/A   Clear
1:15 PM 84.9 °F 89.7 °F 70.5 °F 62% 30.16 in 10.0 mi Calm Calm - N/A   Mostly Cloudy
1:35 PM 86.7 °F 92.5 °F 71.2 °F 60% 30.15 in 10.0 mi Calm Calm - N/A   Mostly Cloudy
1:55 PM 87.1 °F 92.8 °F 71.4 °F 59% 30.15 in 10.0 mi WNW 3.5 mph - N/A   Scattered Clouds
2:15 PM 87.4 °F 93.5 °F 71.6 °F 59% 30.14 in 10.0 mi WNW 4.6 mph - N/A   Scattered Clouds
2:35 PM 86.4 °F 91.1 °F 69.8 °F 58% 30.12 in 10.0 mi South 3.5 mph - N/A   Scattered Clouds
2:55 PM 87.4 °F 93.1 °F 70.9 °F 58% 30.12 in 10.0 mi SW 4.6 mph - N/A   Scattered Clouds
3:15 PM 85.6 °F 91.1 °F 71.2 °F 62% 30.12 in 10.0 mi SSW 6.9 mph - N/A   Mostly Cloudy
3:35 PM 86.2 °F 92.6 °F 72.1 °F 63% 30.11 in 10.0 mi South 6.9 mph - N/A   Overcast
3:55 PM 88.7 °F 97.2 °F 73.8 °F 61% 30.10 in 10.0 mi South 5.8 mph - N/A   Scattered Clouds
4:15 PM 88.2 °F 94.1 °F 71.1 °F 57% 30.09 in 10.0 mi Calm Calm - N/A   Clear
4:35 PM 88.7 °F 95.7 °F 72.0 °F 58% 30.09 in 10.0 mi SW 4.6 mph - N/A   Scattered Clouds
4:55 PM 88.0 °F 93.8 °F 70.9 °F 57% 30.08 in 10.0 mi South 4.6 mph - N/A   Mostly Cloudy
5:15 PM 87.8 °F 93.0 °F 70.3 °F 56% 30.07 in 10.0 mi West 6.9 mph - N/A   Mostly Cloudy
5:35 PM 87.8 °F 94.3 °F 71.8 °F 59% 30.08 in 10.0 mi West 8.1 mph - N/A   Scattered Clouds
5:55 PM 86.0 °F 91.8 °F 71.8 °F 62% 30.08 in 10.0 mi West 8.1 mph - N/A   Clear
6:15 PM 84.2 °F 89.0 °F 70.7 °F 64% 30.07 in 10.0 mi WSW 8.1 mph - N/A   Clear
6:35 PM 84.4 °F 88.2 °F 69.3 °F 60% 30.05 in 10.0 mi SW 4.6 mph - N/A   Clear
6:55 PM 86.0 °F 90.7 °F 70.0 °F 59% 30.05 in 10.0 mi Calm Calm - N/A   Clear
7:15 PM 87.1 °F 92.4 °F 70.9 °F 58% 30.05 in 10.0 mi Calm Calm - N/A   Clear
7:35 PM 85.6 °F 92.2 °F 72.5 °F 65% 30.06 in 10.0 mi Calm Calm - N/A   Clear
7:55 PM 84.6 °F 91.0 °F 73.0 °F 68% 30.07 in 10.0 mi South 3.5 mph - N/A   Clear
8:15 PM 84.0 °F 90.2 °F 73.0 °F 69% 30.07 in 10.0 mi South 3.5 mph - N/A   Clear
8:35 PM 80.6 °F 86.0 °F 75.0 °F 83% 30.07 in 10.0 mi Calm Calm - N/A   Clear
8:55 PM 79.2 °F - 74.5 °F 86% 30.06 in 10.0 mi Calm Calm - N/A   Scattered Clouds
9:15 PM 78.3 °F - 74.3 °F 88% 30.06 in 10.0 mi Calm Calm - N/A   Scattered Clouds
9:35 PM 77.2 °F - 73.8 °F 89% 30.07 in 10.0 mi SSW 3.5 mph - N/A   Clear
9:55 PM 77.4 °F - 73.4 °F 88% 30.08 in 10.0 mi Calm Calm - N/A   Clear
10:15 PM 76.1 °F - 73.4 °F 91% 30.08 in 10.0 mi Calm Calm - N/A   Clear
10:35 PM 75.4 °F - 73.8 °F 95% 30.09 in 10.0 mi Calm Calm - N/A   Clear
10:55 PM 75.7 °F - 73.8 °F 94% 30.09 in 10.0 mi Calm Calm - N/A   Clear
11:15 PM 75.9 °F - 73.0 °F 91% 30.09 in 10.0 mi Calm Calm - N/A   Clear
11:35 PM 76.1 °F - 71.8 °F 86% 30.07 in 10.0 mi Calm Calm - N/A Thunderstorm Clear
11:55 PM 76.3 °F - 71.8 °F 86% 30.07 in 10.0 mi SSW 8.1 mph - N/A Thunderstorm Scattered Clouds